Weather History for Johnstown, PA

Change the Weather History Date:

Thursday, June 5, 2014

  Actual Average Record
Temperature  
Mean Temperature 59 °F 62 °F  
Max Temperature 65 °F 71 °F 100 °F (1925)
Min Temperature 52 °F 53 °F 37 °F (1990)
Degree Days  
Heating Degree Days 6 5  
Month to date heating degree days 11 25  
Since 1 June heating degree days 11 25  
Since 1 July heating degree days 7224 6634  
Cooling Degree Days 0 2  
Month to date cooling degree days 5 7  
Year to date cooling degree days 31 31  
Since 1 June cooling degree days 5 7  
Growing Degree Days 8 (Base 50)    
Moisture  
Dew Point 51 °F    
Average Humidity 76    
Maximum Humidity 100    
Minimum Humidity 52    
Precipitation  
Precipitation 0.20 in 0.15 in 1.54 in (1941)
Month to date precipitation 0.94 0.75  
Year to date precipitation 14.50 17.39  
Sea Level Pressure  
Sea Level Pressure 29.79 in    
Wind  
Wind Speed 12 mph (North)    
Max Wind Speed 23 mph    
Max Gust Speed 29 mph    
Visibility 8 miles    
Events Rain    
T = Trace of Precipitation, MM = Missing Value Source: NWS Daily Summary

Daily Weather History Graph

Daily Weather History Graph

Search for Another Location

Airport:

Trip Planner

Search our weather history database for the weather conditions in past years. The results will help you decide how hot, cold, wet, or windy it might be!

Date:

Astronomy

Jun. 05, 2014 Rise Set
Actual Time 5:46 AM EDT 8:41 PM EDT
Civil Twilight 5:13 AM EDT 9:14 PM EDT
Nautical Twilight 4:32 AM EDT 9:55 PM EDT
Astronomical Twilight 3:44 AM EDT 10:43 PM EDT
Moon 1:01 PM EDT (6/5) 1:08 AM EDT (6/5)
Length of Visible Light 16h 00m
Length of Day
14h 55m
Waxing Crescent, 48% of the Moon is Illuminated
Jun 5
Waxing Crescent
Jun 5
First Quarter
Jun 13
Full
Jun 19
Last Quarter
Jun 27
New

Hourly Weather History & Observations

Time (EDT) Temp. Dew Point Humidity Pressure Visibility Wind Dir Wind Speed Gust Speed Precip Events Conditions
12:02 AM 57.0 °F 55.9 °F 96% 29.72 in 6.0 mi Variable 5.8 mph - 0.00 in Rain Light Rain
12:08 AM 57.0 °F 55.9 °F 96% 29.72 in 2.5 mi Variable 4.6 mph - 0.08 in Rain Heavy Rain
12:23 AM 57.0 °F 55.9 °F 96% 29.72 in 4.0 mi NE 8.1 mph - 0.09 in Rain Light Rain
12:39 AM 57.0 °F 55.9 °F 96% 29.72 in 2.5 mi NE 9.2 mph - 0.12 in Rain Rain
12:52 AM 57.2 °F 55.4 °F 94% 29.71 in 2.0 mi ENE 11.5 mph - 0.23 in Rain Heavy Rain
12:54 AM 55.9 °F 55.0 °F 97% 29.68 in 2.0 mi ENE 11.5 mph - 0.23 in Rain Heavy Rain
1:20 AM 55.9 °F 55.0 °F 97% 29.71 in 4.0 mi NE 11.5 mph 23.0 mph 0.04 in Rain Light Rain
1:32 AM 55.9 °F 55.0 °F 97% 29.72 in 3.0 mi NE 12.7 mph 21.9 mph 0.08 in Rain Rain
1:54 AM 55.0 °F 54.0 °F 96% 29.69 in 5.0 mi ENE 12.7 mph 19.6 mph 0.13 in Rain Light Rain
2:03 AM 55.0 °F 54.0 °F 96% 29.71 in 5.0 mi ENE 8.1 mph 19.6 mph 0.01 in Rain Light Rain
2:08 AM 55.0 °F 54.0 °F 96% 29.71 in 1.8 mi ENE 9.2 mph - 0.01 in Rain Light Rain
2:24 AM 55.0 °F 54.0 °F 96% 29.71 in 2.0 mi NE 10.4 mph - 0.01 in Rain Light Rain
2:34 AM 54.0 °F 54.0 °F 100% 29.71 in 4.0 mi NE 15.0 mph 21.9 mph 0.02 in Rain Rain
2:54 AM 54.0 °F 53.1 °F 97% 29.70 in 5.0 mi ENE 10.4 mph 20.7 mph 0.05 in Rain Rain
3:09 AM 54.0 °F 53.1 °F 97% 29.73 in 5.0 mi NE 11.5 mph - 0.03 in Rain Light Rain
3:28 AM 53.1 °F 53.1 °F 100% 29.73 in 6.0 mi NE 11.5 mph - 0.03 in Rain Light Rain
3:54 AM 53.1 °F 52.0 °F 96% 29.71 in 10.0 mi NE 13.8 mph 21.9 mph 0.04 in   Overcast
4:31 AM 53.1 °F 52.0 °F 96% 29.74 in 10.0 mi NE 10.4 mph - 0.00 in Rain Light Rain
4:54 AM 53.1 °F 52.0 °F 96% 29.72 in 10.0 mi ENE 8.1 mph - 0.00 in Rain Light Rain
5:35 AM 53.1 °F 51.1 °F 93% 29.77 in 10.0 mi NNE 8.1 mph - 0.00 in   Overcast
5:54 AM 53.1 °F 51.1 °F 93% 29.77 in 10.0 mi North 8.1 mph - 0.00 in   Overcast
6:19 AM 53.1 °F 51.1 °F 93% 29.79 in 10.0 mi North 6.9 mph - N/A   Overcast
6:54 AM 53.1 °F 51.1 °F 93% 29.79 in 10.0 mi North 5.8 mph - N/A   Overcast
7:12 AM 53.1 °F 51.1 °F 93% 29.80 in 10.0 mi North 8.1 mph - N/A   Overcast
7:25 AM 53.1 °F 52.0 °F 96% 29.81 in 10.0 mi NNW 8.1 mph - N/A   Overcast
7:52 AM 53.6 °F 51.8 °F 94% 29.82 in 10.0 mi NW 6.9 mph - N/A   Overcast
7:54 AM 54.0 °F 52.0 °F 93% 29.81 in 10.0 mi NW 6.9 mph - N/A   Overcast
8:33 AM 55.0 °F 52.0 °F 89% 29.83 in 10.0 mi NNW 6.9 mph - N/A   Overcast
8:54 AM 55.0 °F 52.0 °F 89% 29.82 in 10.0 mi NW 6.9 mph - N/A   Overcast
9:54 AM 59.0 °F 51.1 °F 75% 29.81 in 10.0 mi NW 10.4 mph - N/A   Partly Cloudy
10:54 AM 61.0 °F 48.9 °F 64% 29.81 in 10.0 mi NW 11.5 mph 20.7 mph N/A   Clear
11:54 AM 63.0 °F 48.0 °F 58% 29.82 in 10.0 mi WNW 13.8 mph 20.7 mph N/A   Partly Cloudy
12:54 PM 64.0 °F 46.0 °F 52% 29.82 in 10.0 mi WNW 17.3 mph - N/A   Mostly Cloudy
1:54 PM 64.9 °F 46.9 °F 52% 29.83 in 10.0 mi WNW 11.5 mph 20.7 mph N/A   Mostly Cloudy
2:54 PM 64.0 °F 48.0 °F 56% 29.83 in 10.0 mi West 17.3 mph - N/A   Mostly Cloudy
3:54 PM 63.0 °F 48.9 °F 60% 29.85 in 10.0 mi NW 17.3 mph - N/A   Mostly Cloudy
4:54 PM 61.0 °F 48.0 °F 62% 29.86 in 10.0 mi NW 19.6 mph 25.3 mph N/A   Mostly Cloudy
5:54 PM 61.0 °F 48.0 °F 62% 29.86 in 10.0 mi WNW 13.8 mph - N/A   Overcast
6:54 PM 60.1 °F 48.0 °F 64% 29.88 in 10.0 mi WNW 11.5 mph - N/A   Overcast
7:54 PM 59.0 °F 48.0 °F 67% 29.89 in 10.0 mi West 8.1 mph - N/A   Overcast
8:54 PM 57.0 °F 48.0 °F 72% 29.91 in 10.0 mi West 9.2 mph - N/A   Mostly Cloudy
9:54 PM 55.9 °F 46.0 °F 69% 29.93 in 10.0 mi WNW 13.8 mph - N/A   Clear
10:54 PM 54.0 °F 43.0 °F 66% 29.94 in 10.0 mi West 10.4 mph - N/A   Clear
11:54 PM 53.1 °F 39.9 °F 61% 29.94 in 10.0 mi WNW 10.4 mph - N/A   Clear